Location: Ballingbuur
(53.0000°N, 5.7667°E)
Time: 07:01:13
(UTC+00:00)

COSMOS 2406 - Pass Details

Date: 29 November 2020
Orbit: 840 x 866 km, 71.0° (Epoch: 24 January)

Event Time Altitude Azimuth Distance (km) Brightness Sun altitude
Exits shadow 05:18:19 13° 335° (NNW) 2,266 5.1 -18.1°
Maximum altitude 05:23:20 56° 52° (NE) 1,019 3.8 -17.4°
Drops below altitude 10° 05:29:00 10° 130° (SE) 2,503 6.7 -16.5°
Sets 05:31:30 0° 135° (SE) 3,439 7.4 -16.2°
